Location: Elk Horn Observatory
(36.6768°N, 80.8309°W)
Time: 00:32:18
(UTC-04:00)

Envisat - Pass Details

Date: 26 January 2019
Orbit: 764 x 766 km, 98.1° (Epoch: 18 October)

Event Time Altitude Azimuth Distance (km) Brightness Sun altitude
Rises 19:16:12 0° 169° (S) 3,216 6.2 -18.9°
Reaches altitude 10° 19:18:30 10° 171° (S) 2,293 5.5 -19.3°
Maximum altitude 19:23:33 78° 258° (WSW) 785 3.1 -20.3°
Drops below altitude 10° 19:28:39 10° 345° (NNW) 2,308 5.6 -21.3°
Sets 19:30:58 0° 346° (NNW) 3,238 6.3 -21.8°
